contact:dominique.lefevre@mio.osupytheas.fr, maurice.libes@osupytheas.fr, didier.mallarino@osupytheas.fr
Project:EMSO http://www.emso-fr.org/EMSO-France
Depth: 2436.0 m
Title:EMSO Ligure Ouest : Data MII capteur AQUADOPP
Date,Latitude,Longitude,X_East,Y_North,Z_Up,Amplitude_X,Amplitude_Y,Amplitude_Z,Batterie,SoundSpeed,Heading,Pitch,Roll,Pressure,TIS,Speed,Direction
, degrees North, degrees East, m.s-1, m.s-1,m.s-1, 1, 1, 1, Volt, m.s-1, degree, degree, degree, dbar, degree_C, m.s-1, degree
2021-01-03T00:04:03,42.805,6.029,0.04,-0.038,0.009,106.0,104.0,102.0,13.3,1505.2,325.7,-0.7,1.8,2470.424,13.3,0.055,133.5
2021-01-03T00:07:03,42.805,6.029,0.024,-0.047,0.0,104.0,106.0,102.0,13.4,1505.3,323.1,-0.7,1.9,2470.459,13.31,0.052,153.0
2021-01-03T00:10:03,42.805,6.029,0.027,-0.046,-0.008,105.0,105.0,102.0,13.3,1505.3,323.6,-0.7,1.8,2470.392,13.31,0.053,149.6
2021-01-03T00:13:03,42.805,6.029,0.043,-0.044,0.022,106.0,105.0,102.0,13.3,1505.3,324.2,-0.7,1.8,2470.397,13.31,0.061,135.7
2021-01-03T00:16:03,42.805,6.029,0.025,-0.031,0.013,105.0,106.0,102.0,13.4,1505.3,323.0,-0.7,1.8,2470.375,13.32,0.039,141.1
2021-01-03T00:19:03,42.805,6.029,0.031,-0.046,0.009,105.0,106.0,101.0,13.4,1505.3,325.7,-0.7,1.8,2470.422,13.32,0.055,146.0
2021-01-03T00:22:03,42.805,6.029,0.023,-0.053,-0.011,105.0,105.0,102.0,13.4,1505.3,324.4,-0.7,1.8,2470.438,13.32,0.057,156.5
2021-01-03T00:25:03,42.805,6.029,0.025,-0.065,-0.003,105.0,105.0,103.0,13.4,1505.3,327.5,-0.7,1.8,2470.382,13.32,0.069,159.0
2021-01-03T00:28:03,42.805,6.029,0.008,-0.052,0.007,105.0,106.0,103.0,13.3,1505.3,326.3,-0.7,1.8,2470.403,13.32,0.052,171.3
2021-01-03T00:31:03,42.805,6.029,0.019,-0.051,-0.028,105.0,106.0,103.0,13.3,1505.3,326.2,-0.7,1.9,2470.384,13.32,0.054,159.6
2021-01-03T00:34:03,42.805,6.029,0.016,-0.041,0.006,105.0,106.0,102.0,13.4,1505.3,327.8,-0.7,1.8,2470.371,13.32,0.044,158.7
2021-01-03T00:37:03,42.805,6.029,0.034,-0.051,0.008,104.0,105.0,102.0,13.4,1505.3,325.6,-0.7,1.8,2470.348,13.32,0.061,146.3
2021-01-03T00:40:03,42.805,6.029,0.022,-0.051,-0.013,105.0,106.0,103.0,13.4,1505.3,328.4,-0.7,1.8,2470.388,13.32,0.055,156.7
2021-01-03T00:43:03,42.805,6.029,0.023,-0.036,0.05,104.0,106.0,101.0,13.4,1505.3,325.5,-0.7,1.8,2470.352,13.32,0.042,147.4
2021-01-03T00:46:03,42.805,6.029,0.005,-0.05,0.007,105.0,105.0,103.0,13.4,1505.3,327.5,-0.7,1.8,2470.342,13.32,0.05,174.3
2021-01-03T00:49:03,42.805,6.029,0.009,-0.045,0.039,105.0,106.0,102.0,13.4,1505.3,324.3,-0.7,1.8,2470.383,13.32,0.045,168.7
2021-01-03T00:52:03,42.805,6.029,0.029,-0.057,-0.009,104.0,107.0,102.0,13.4,1505.3,325.4,-0.7,1.8,2470.361,13.32,0.063,153.0
2021-01-03T00:55:03,42.805,6.029,0.038,-0.034,0.021,106.0,106.0,102.0,13.4,1505.3,327.1,-0.7,1.8,2470.344,13.32,0.05,131.8
2021-01-03T00:58:03,42.805,6.029,0.014,-0.042,0.0,106.0,106.0,102.0,13.4,1505.3,323.2,-0.7,1.8,2470.346,13.32,0.044,161.6
2021-01-03T01:04:03,42.805,6.029,0.031,-0.043,0.01,106.0,107.0,103.0,13.4,1505.2,326.1,-0.8,1.8,2470.402,13.3,0.053,144.2
2021-01-03T01:07:03,42.805,6.029,0.019,-0.046,0.0,104.0,106.0,102.0,13.4,1505.3,327.7,-0.7,1.8,2470.391,13.31,0.049,157.6
2021-01-03T01:10:03,42.805,6.029,0.02,-0.028,0.012,104.0,105.0,103.0,13.4,1505.3,322.8,-0.7,1.8,2470.407,13.31,0.034,144.5
2021-01-03T01:13:03,42.805,6.029,0.001,-0.067,0.003,105.0,105.0,101.0,13.4,1505.3,325.2,-0.7,1.8,2470.374,13.31,0.067,179.1
2021-01-03T01:16:03,42.805,6.029,-0.003,-0.07,-0.038,105.0,106.0,102.0,13.3,1505.3,328.1,-0.7,1.8,2470.391,13.32,0.07,182.4
2021-01-03T01:19:03,42.805,6.029,0.036,-0.048,0.006,105.0,105.0,102.0,13.3,1505.3,324.2,-0.7,1.8,2470.374,13.32,0.06,143.1
2021-01-03T01:25:02,42.805,6.029,0.007,-0.045,-0.017,106.0,106.0,102.0,13.4,1505.2,327.9,-0.7,1.8,2470.408,13.3,0.045,171.2
2021-01-03T01:28:03,42.805,6.029,0.016,-0.039,0.006,106.0,105.0,102.0,13.4,1505.3,322.7,-0.7,1.8,2470.399,13.31,0.042,157.7
2021-01-03T01:31:03,42.805,6.029,0.042,-0.054,0.027,105.0,105.0,102.0,13.4,1505.3,326.8,-0.7,1.8,2470.397,13.31,0.068,142.1
2021-01-03T01:34:03,42.805,6.029,-0.006,-0.05,-0.02,105.0,105.0,102.0,13.4,1505.3,324.9,-0.7,1.8,2470.365,13.31,0.05,186.8
2021-01-03T01:37:03,42.805,6.029,0.031,-0.056,0.006,105.0,106.0,102.0,13.4,1505.3,328.0,-0.7,1.9,2470.338,13.32,0.064,151.0
2021-01-03T01:40:03,42.805,6.029,0.009,-0.053,-0.017,105.0,106.0,101.0,13.4,1505.3,328.2,-0.7,1.9,2470.36,13.32,0.053,170.4
2021-01-03T01:43:03,42.805,6.029,0.02,-0.041,-0.017,105.0,106.0,102.0,13.4,1505.3,327.1,-0.7,1.8,2470.37,13.32,0.045,154.0
2021-01-03T01:46:03,42.805,6.029,0.02,-0.049,0.016,105.0,105.0,102.0,13.4,1505.3,326.1,-0.7,1.8,2470.353,13.32,0.052,157.8
2021-01-03T01:49:03,42.805,6.029,0.0,-0.03,-0.007,104.0,105.0,102.0,13.4,1505.3,324.7,-0.7,1.8,2470.334,13.32,0.03,180.0
2021-01-03T01:52:03,42.805,6.029,0.022,-0.023,-0.025,105.0,106.0,102.0,13.4,1505.3,326.8,-0.7,1.8,2470.388,13.32,0.031,136.3
2021-01-03T01:55:03,42.805,6.029,-0.003,-0.053,-0.047,105.0,106.0,102.0,13.4,1505.3,324.5,-0.7,1.8,2470.363,13.32,0.053,183.2
2021-01-03T01:58:03,42.805,6.029,0.003,-0.047,-0.016,104.0,106.0,101.0,13.4,1505.3,324.3,-0.7,1.8,2470.321,13.32,0.047,176.4
2021-01-03T02:04:03,42.805,6.029,0.003,-0.048,-0.014,105.0,105.0,102.0,13.3,1505.2,323.8,-0.7,1.8,2470.382,13.3,0.048,176.4
2021-01-03T02:07:03,42.805,6.029,0.034,-0.056,-0.01,103.0,107.0,102.0,13.4,1505.3,328.2,-0.7,1.8,2470.402,13.31,0.065,148.7
2021-01-03T02:10:03,42.805,6.029,-0.003,-0.044,-0.03,104.0,105.0,103.0,13.4,1505.3,323.7,-0.7,1.8,2470.385,13.31,0.044,183.9
2021-01-03T02:13:03,42.805,6.029,0.015,-0.036,-0.011,105.0,106.0,102.0,13.4,1505.3,326.3,-0.7,1.8,2470.336,13.32,0.039,157.4
2021-01-03T02:16:03,42.805,6.029,0.017,-0.037,-0.05,105.0,107.0,102.0,13.4,1505.3,323.0,-0.7,1.8,2470.365,13.32,0.04,155.3
2021-01-03T02:19:03,42.805,6.029,0.023,-0.037,-0.015,105.0,105.0,101.0,13.4,1505.3,324.2,-0.7,1.8,2470.351,13.32,0.043,148.1
2021-01-03T02:22:03,42.805,6.029,0.02,-0.028,-0.008,104.0,104.0,102.0,13.3,1505.3,327.2,-0.7,1.8,2470.322,13.32,0.034,144.5
2021-01-03T02:25:03,42.805,6.029,-0.006,-0.024,-0.018,104.0,105.0,102.0,13.4,1505.3,324.5,-0.7,1.8,2470.291,13.32,0.024,194.0
2021-01-03T02:28:03,42.805,6.029,0.001,-0.043,0.007,105.0,105.0,103.0,13.4,1505.3,327.9,-0.7,1.8,2470.344,13.32,0.043,178.7
2021-01-03T02:31:03,42.805,6.029,0.039,-0.047,-0.011,105.0,105.0,101.0,13.4,1505.3,323.1,-0.7,1.8,2470.361,13.32,0.061,140.3
2021-01-03T02:34:03,42.805,6.029,0.025,-0.03,-0.022,104.0,106.0,102.0,13.3,1505.3,324.6,-0.7,1.8,2470.334,13.32,0.039,140.2
2021-01-03T02:37:03,42.805,6.029,0.018,-0.04,-0.008,104.0,105.0,103.0,13.3,1505.3,327.9,-0.7,1.8,2470.301,13.32,0.043,155.8
2021-01-03T02:40:03,42.805,6.029,0.022,-0.028,0.005,105.0,105.0,102.0,13.3,1505.3,323.4,-0.7,1.9,2470.324,13.32,0.035,141.8
2021-01-03T02:43:03,42.805,6.029,0.02,-0.022,0.014,106.0,105.0,101.0,13.3,1505.3,326.1,-0.7,1.8,2470.328,13.32,0.029,137.7
2021-01-03T02:46:03,42.805,6.029,0.018,-0.031,-0.016,105.0,105.0,103.0,13.3,1505.3,325.5,-0.7,1.8,2470.327,13.32,0.035,149.9
2021-01-03T02:49:03,42.805,6.029,0.0,-0.036,-0.003,104.0,105.0,101.0,13.4,1505.3,325.0,-0.7,1.8,2470.316,13.32,0.036,180.0
2021-01-03T02:52:03,42.805,6.029,-0.018,-0.056,-0.043,104.0,106.0,102.0,13.3,1505.3,328.3,-0.7,1.8,2470.316,13.32,0.058,197.8
2021-01-03T02:55:03,42.805,6.029,-0.003,-0.023,-0.029,106.0,105.0,103.0,13.4,1505.3,323.5,-0.7,1.8,2470.295,13.32,0.023,187.4
2021-01-03T02:58:03,42.805,6.029,0.008,-0.036,0.008,105.0,105.0,102.0,13.4,1505.3,324.7,-0.7,1.8,2470.336,13.32,0.036,167.5
2021-01-03T03:04:03,42.805,6.029,-0.009,-0.031,-0.042,106.0,106.0,101.0,13.3,1505.2,326.4,-0.8,1.8,2470.335,13.3,0.032,196.2
2021-01-03T03:07:03,42.805,6.029,0.024,-0.052,-0.043,105.0,105.0,103.0,13.3,1505.3,325.5,-0.7,1.8,2470.316,13.31,0.057,155.2
2021-01-03T03:10:03,42.805,6.029,0.01,-0.034,-0.013,105.0,106.0,101.0,13.3,1505.3,326.8,-0.7,1.8,2470.366,13.31,0.035,163.6
2021-01-03T03:13:03,42.805,6.029,0.012,-0.039,-0.024,104.0,106.0,101.0,13.4,1505.3,324.9,-0.7,1.8,2470.327,13.32,0.04,162.9
2021-01-03T03:16:03,42.805,6.029,0.023,-0.02,-0.024,105.0,105.0,102.0,13.3,1505.3,323.1,-0.7,1.9,2470.29,13.32,0.03,131.0
2021-01-03T03:19:03,42.805,6.029,-0.009,-0.022,-0.02,105.0,105.0,101.0,13.4,1505.3,325.0,-0.6,1.8,2470.343,13.32,0.023,202.2
2021-01-03T03:22:03,42.805,6.029,-0.009,-0.055,-0.033,104.0,106.0,102.0,13.4,1505.3,324.6,-0.7,1.8,2470.3,13.32,0.055,189.3
2021-01-03T03:25:03,42.805,6.029,0.005,-0.038,0.029,104.0,106.0,101.0,13.4,1505.3,325.4,-0.7,1.8,2470.299,13.32,0.038,172.5
2021-01-03T03:28:03,42.805,6.029,0.011,-0.03,-0.012,104.0,104.0,101.0,13.3,1505.3,324.5,-0.7,1.8,2470.328,13.32,0.031,159.9
2021-01-03T03:31:03,42.805,6.029,-0.007,-0.026,-0.013,105.0,105.0,101.0,13.3,1505.3,327.9,-0.7,1.8,2470.319,13.32,0.026,195.1
2021-01-03T03:34:03,42.805,6.029,0.02,-0.037,-0.003,104.0,104.0,101.0,13.4,1505.3,327.0,-0.7,1.8,2470.315,13.32,0.042,151.6
2021-01-03T03:37:03,42.805,6.029,0.011,-0.033,0.02,104.0,104.0,102.0,13.3,1505.3,323.5,-0.7,1.8,2470.295,13.32,0.034,161.6
2021-01-03T03:40:03,42.805,6.029,0.004,-0.032,-0.012,105.0,104.0,101.0,13.4,1505.3,324.7,-0.7,1.8,2470.261,13.32,0.032,172.9
2021-01-03T03:43:03,42.805,6.029,-0.004,0.0,-0.006,104.0,106.0,101.0,13.4,1505.3,328.0,-0.7,1.9,2470.316,13.32,0.004,270.0
2021-01-03T03:46:03,42.805,6.029,0.007,-0.033,-0.013,105.0,105.0,102.0,13.4,1505.3,326.7,-0.7,1.8,2470.295,13.32,0.033,168.0
2021-01-03T03:49:03,42.805,6.029,0.007,-0.045,-0.001,105.0,105.0,101.0,13.3,1505.3,327.5,-0.7,1.8,2470.299,13.32,0.045,171.2
2021-01-03T03:52:03,42.805,6.029,-0.007,-0.027,-0.017,104.0,105.0,101.0,13.3,1505.3,328.4,-0.7,1.9,2470.328,13.32,0.027,194.5
2021-01-03T03:55:03,42.805,6.029,0.002,-0.038,-0.014,105.0,105.0,101.0,13.4,1505.3,323.7,-0.7,1.9,2470.292,13.32,0.038,177.0
2021-01-03T03:58:03,42.805,6.029,0.019,-0.025,-0.01,106.0,105.0,102.0,13.4,1505.3,325.3,-0.7,1.8,2470.279,13.32,0.031,142.8
2021-01-03T04:04:03,42.805,6.029,0.003,-0.018,0.001,105.0,105.0,102.0,13.4,1505.2,323.5,-0.7,1.8,2470.316,13.3,0.018,170.5
2021-01-03T04:07:03,42.805,6.029,0.011,-0.044,-0.017,105.0,104.0,102.0,13.4,1505.3,326.9,-0.7,1.8,2470.335,13.31,0.045,166.0
2021-01-03T04:10:03,42.805,6.029,-0.002,-0.027,-0.02,104.0,105.0,102.0,13.3,1505.3,325.2,-0.7,1.8,2470.279,13.31,0.027,184.2
2021-01-03T04:13:03,42.805,6.029,0.03,-0.043,0.013,105.0,105.0,101.0,13.3,1505.3,325.2,-0.7,1.8,2470.277,13.32,0.052,145.1
2021-01-03T04:16:03,42.805,6.029,0.025,-0.022,0.004,104.0,105.0,101.0,13.4,1505.3,327.6,-0.7,1.9,2470.318,13.32,0.033,131.3
2021-01-03T04:19:03,42.805,6.029,0.027,-0.023,0.014,105.0,105.0,102.0,13.4,1505.3,322.7,-0.7,1.8,2470.343,13.32,0.035,130.4
2021-01-03T04:22:03,42.805,6.029,0.009,-0.024,0.015,104.0,105.0,101.0,13.4,1505.3,325.4,-0.7,1.8,2470.329,13.32,0.025,159.4
2021-01-03T04:25:03,42.805,6.029,-0.016,-0.04,-0.007,105.0,105.0,102.0,13.3,1505.3,325.1,-0.7,1.8,2470.291,13.32,0.043,201.8
2021-01-03T04:28:03,42.805,6.029,0.019,-0.024,0.004,105.0,106.0,102.0,13.3,1505.3,327.3,-0.7,1.8,2470.326,13.32,0.03,141.6
2021-01-03T04:31:03,42.805,6.029,0.014,-0.025,-0.007,105.0,105.0,101.0,13.3,1505.3,322.9,-0.7,1.8,2470.307,13.32,0.028,150.7
2021-01-03T04:34:03,42.805,6.029,0.0,-0.021,0.0,106.0,105.0,102.0,13.3,1505.3,323.8,-0.7,1.8,2470.305,13.32,0.021,180.0
2021-01-03T04:37:03,42.805,6.029,0.0,-0.022,-0.02,105.0,105.0,102.0,13.3,1505.3,326.8,-0.7,1.8,2470.332,13.32,0.022,180.0
2021-01-03T04:40:03,42.805,6.029,0.032,-0.016,0.011,104.0,105.0,103.0,13.4,1505.3,324.5,-0.7,1.8,2470.332,13.32,0.035,116.6
2021-01-03T04:43:03,42.805,6.029,0.027,-0.017,0.016,104.0,106.0,101.0,13.4,1505.3,326.2,-0.7,1.8,2470.307,13.32,0.031,122.2
2021-01-03T04:46:03,42.805,6.029,0.018,-0.03,0.022,105.0,105.0,101.0,13.4,1505.3,323.5,-0.7,1.9,2470.296,13.32,0.034,149.0
2021-01-03T04:49:03,42.805,6.029,0.019,-0.021,0.034,105.0,106.0,101.0,13.3,1505.3,327.2,-0.7,1.8,2470.335,13.32,0.028,137.9
2021-01-03T04:52:03,42.805,6.029,0.02,-0.036,-0.015,105.0,106.0,101.0,13.4,1505.3,324.7,-0.7,1.8,2470.343,13.32,0.041,150.9
2021-01-03T04:55:03,42.805,6.029,0.024,-0.035,0.003,105.0,106.0,103.0,13.4,1505.3,324.3,-0.7,1.8,2470.3,13.32,0.042,145.6
2021-01-03T04:58:03,42.805,6.029,0.005,-0.043,-0.026,104.0,107.0,102.0,13.3,1505.3,325.8,-0.7,1.8,2470.347,13.32,0.043,173.4
2021-01-03T05:04:03,42.805,6.029,-0.001,-0.053,-0.014,105.0,105.0,102.0,13.4,1505.2,325.5,-0.7,1.8,2470.33,13.3,0.053,181.1
2021-01-03T05:07:03,42.805,6.029,0.014,-0.055,-0.011,106.0,104.0,101.0,13.4,1505.3,322.8,-0.7,1.8,2470.353,13.31,0.056,165.7
2021-01-03T05:10:03,42.805,6.029,0.02,-0.027,0.018,104.0,105.0,102.0,13.4,1505.3,324.1,-0.7,1.9,2470.365,13.31,0.033,143.5
2021-01-03T05:13:03,42.805,6.029,0.026,-0.028,-0.002,106.0,106.0,101.0,13.4,1505.3,322.8,-0.7,1.8,2470.314,13.32,0.038,137.1
2021-01-03T05:16:03,42.805,6.029,0.02,-0.04,0.027,104.0,106.0,103.0,13.3,1505.3,326.4,-0.7,1.8,2470.326,13.32,0.044,153.4
2021-01-03T05:19:03,42.805,6.029,0.045,-0.025,0.041,105.0,107.0,102.0,13.4,1505.3,328.3,-0.7,1.8,2470.394,13.32,0.051,119.1
2021-01-03T05:22:03,42.805,6.029,0.0,-0.03,0.0,105.0,105.0,102.0,13.4,1505.3,325.0,-0.7,1.8,2470.372,13.32,0.03,180.0
2021-01-03T05:25:03,42.805,6.029,0.019,-0.033,-0.034,106.0,105.0,101.0,13.4,1505.3,326.3,-0.7,1.8,2470.333,13.32,0.038,150.1
2021-01-03T05:28:03,42.805,6.029,0.0,-0.037,-0.002,106.0,106.0,102.0,13.4,1505.3,323.6,-0.7,1.8,2470.351,13.32,0.037,180.0
2021-01-03T05:31:03,42.805,6.029,0.031,-0.031,0.02,104.0,105.0,102.0,13.3,1505.3,327.6,-0.7,1.8,2470.325,13.32,0.043,135.0
2021-01-03T05:34:03,42.805,6.029,0.019,-0.037,-0.007,106.0,106.0,101.0,13.4,1505.3,323.2,-0.7,1.8,2470.344,13.32,0.041,152.8
2021-01-03T05:37:03,42.805,6.029,0.006,-0.04,0.014,105.0,106.0,103.0,13.3,1505.3,324.8,-0.7,1.8,2470.367,13.32,0.04,171.5
2021-01-03T05:40:03,42.805,6.029,0.008,-0.019,-0.024,107.0,106.0,102.0,13.3,1505.3,327.3,-0.7,1.8,2470.328,13.32,0.02,157.2
2021-01-03T05:43:03,42.805,6.029,0.03,-0.034,-0.013,104.0,105.0,102.0,13.3,1505.3,323.6,-0.7,1.8,2470.35,13.32,0.045,138.6
2021-01-03T05:46:03,42.805,6.029,0.026,-0.042,0.008,105.0,106.0,102.0,13.3,1505.3,324.1,-0.7,1.8,2470.358,13.32,0.049,148.2
2021-01-03T05:49:03,42.805,6.029,-0.018,-0.024,-0.027,105.0,106.0,101.0,13.4,1505.3,327.6,-0.7,1.8,2470.37,13.32,0.03,216.9
2021-01-03T05:52:03,42.805,6.029,0.01,-0.031,0.006,105.0,106.0,101.0,13.4,1505.3,325.7,-0.7,1.8,2470.371,13.32,0.032,162.1
2021-01-03T05:55:03,42.805,6.029,0.012,-0.038,-0.025,104.0,105.0,103.0,13.4,1505.3,327.9,-0.7,1.8,2470.332,13.32,0.039,162.5
2021-01-03T05:58:03,42.805,6.029,0.0,-0.035,-0.006,105.0,107.0,101.0,13.4,1505.3,322.8,-0.7,1.8,2470.343,13.32,0.035,180.0
2021-01-03T06:04:03,42.805,6.029,0.019,-0.036,-0.023,105.0,106.0,102.0,13.4,1505.2,324.1,-0.7,1.8,2470.411,13.3,0.04,152.2
2021-01-03T06:07:03,42.805,6.029,0.017,-0.042,-0.026,105.0,105.0,102.0,13.4,1505.3,328.2,-0.7,1.9,2470.409,13.31,0.045,158.0
2021-01-03T06:10:03,42.805,6.029,0.038,-0.05,-0.031,104.0,106.0,102.0,13.4,1505.3,323.3,-0.7,1.8,2470.378,13.31,0.062,142.8
2021-01-03T06:13:03,42.805,6.029,0.035,-0.024,-0.005,106.0,106.0,101.0,13.4,1505.3,325.0,-0.7,1.8,2470.373,13.32,0.042,124.4
2021-01-03T06:16:03,42.805,6.029,0.027,-0.038,0.0,107.0,107.0,102.0,13.4,1505.3,324.8,-0.7,1.8,2470.395,13.32,0.046,144.6
2021-01-03T06:19:03,42.805,6.029,0.034,-0.059,-0.012,105.0,105.0,102.0,13.4,1505.3,328.1,-0.7,1.8,2470.404,13.32,0.068,150.0
2021-01-03T06:22:03,42.805,6.029,0.049,-0.032,-0.023,104.0,106.0,103.0,13.4,1505.3,325.3,-0.7,1.8,2470.385,13.32,0.058,123.2
2021-01-03T06:25:03,42.805,6.029,0.012,-0.024,-0.013,105.0,107.0,101.0,13.4,1505.3,323.4,-0.7,1.8,2470.408,13.32,0.026,153.4
2021-01-03T06:28:03,42.805,6.029,0.049,-0.035,0.025,103.0,107.0,103.0,13.4,1505.3,326.0,-0.7,1.8,2470.389,13.32,0.06,125.5
2021-01-03T06:31:03,42.805,6.029,0.033,-0.042,0.006,105.0,106.0,102.0,13.3,1505.3,324.4,-0.7,1.8,2470.44,13.32,0.053,141.8
2021-01-03T06:34:03,42.805,6.029,0.016,-0.022,-0.004,104.0,108.0,102.0,13.4,1505.3,325.5,-0.7,1.8,2470.408,13.32,0.027,144.0
2021-01-03T06:37:03,42.805,6.029,0.01,-0.043,-0.013,105.0,106.0,102.0,13.4,1505.3,324.9,-0.7,1.9,2470.381,13.32,0.044,166.9
2021-01-03T06:40:03,42.805,6.029,0.031,-0.028,0.001,107.0,107.0,100.0,13.4,1505.3,327.0,-0.7,1.8,2470.412,13.32,0.041,132.1
2021-01-03T06:43:03,42.805,6.029,0.009,-0.032,0.017,105.0,106.0,103.0,13.4,1505.3,324.0,-0.7,1.8,2470.382,13.32,0.033,164.3
2021-01-03T06:46:03,42.805,6.029,0.008,-0.037,-0.021,106.0,106.0,102.0,13.4,1505.3,325.0,-0.7,1.8,2470.413,13.32,0.037,167.8
2021-01-03T06:49:03,42.805,6.029,0.005,-0.044,0.0,105.0,108.0,102.0,13.4,1505.3,324.4,-0.7,1.8,2470.393,13.32,0.044,173.5
2021-01-03T06:52:03,42.805,6.029,0.023,-0.041,-0.025,105.0,106.0,102.0,13.4,1505.3,327.7,-0.7,1.8,2470.417,13.32,0.047,150.7
2021-01-03T06:55:03,42.805,6.029,-0.002,-0.034,-0.017,106.0,106.0,102.0,13.4,1505.3,326.1,-0.7,1.8,2470.419,13.32,0.034,183.4
2021-01-03T06:58:03,42.805,6.029,0.021,-0.026,0.015,105.0,106.0,102.0,13.4,1505.3,328.5,-0.7,1.9,2470.393,13.32,0.033,141.1
2021-01-03T07:04:03,42.805,6.029,0.022,-0.041,0.029,104.0,105.0,102.0,13.4,1505.2,324.0,-0.7,1.8,2470.471,13.3,0.046,151.8
2021-01-03T07:07:03,42.805,6.029,0.022,-0.025,-0.002,106.0,106.0,102.0,13.4,1505.3,326.4,-0.7,1.8,2470.454,13.31,0.033,138.7
2021-01-03T07:10:03,42.805,6.029,0.018,-0.038,0.0,105.0,106.0,102.0,13.4,1505.3,324.5,-0.7,1.8,2470.471,13.31,0.042,154.7
2021-01-03T07:13:03,42.805,6.029,0.018,-0.025,-0.022,106.0,108.0,102.0,13.3,1505.3,324.4,-0.7,1.8,2470.445,13.32,0.03,144.2
2021-01-03T07:16:03,42.805,6.029,0.035,-0.023,0.018,106.0,106.0,103.0,13.4,1505.3,327.7,-0.7,1.8,2470.437,13.32,0.041,123.3
2021-01-03T07:19:03,42.805,6.029,0.013,-0.04,-0.019,105.0,105.0,101.0,13.4,1505.3,322.7,-0.7,1.8,2470.448,13.32,0.042,162.0
2021-01-03T07:22:03,42.805,6.029,0.019,-0.022,0.003,105.0,107.0,103.0,13.4,1505.3,325.1,-0.7,1.8,2470.484,13.32,0.029,139.2
2021-01-03T07:25:03,42.805,6.029,0.024,-0.044,-0.022,106.0,107.0,103.0,13.4,1505.3,324.8,-0.7,1.8,2470.477,13.32,0.05,151.4
2021-01-03T07:28:03,42.805,6.029,0.032,-0.035,-0.025,104.0,106.0,102.0,13.4,1505.3,327.2,-0.7,1.8,2470.472,13.32,0.047,137.6
2021-01-03T07:31:03,42.805,6.029,0.04,-0.041,-0.002,105.0,108.0,102.0,13.4,1505.3,325.1,-0.7,1.8,2470.47,13.32,0.057,135.7
2021-01-03T07:34:03,42.805,6.029,0.06,-0.034,0.039,105.0,106.0,102.0,13.3,1505.3,323.6,-0.7,1.9,2470.493,13.32,0.068,119.5
2021-01-03T07:37:03,42.805,6.029,-0.014,-0.05,-0.02,105.0,106.0,102.0,13.3,1505.3,326.7,-0.7,1.8,2470.472,13.32,0.051,195.6
2021-01-03T07:40:03,42.805,6.029,0.014,-0.016,0.002,107.0,106.0,103.0,13.4,1505.3,326.0,-0.7,1.8,2470.424,13.32,0.021,138.8
2021-01-03T07:43:03,42.805,6.029,0.035,-0.033,-0.026,104.0,106.0,103.0,13.3,1505.3,324.2,-0.7,1.8,2470.451,13.32,0.048,133.3
2021-01-03T07:49:03,42.805,6.029,0.04,-0.012,-0.001,105.0,107.0,103.0,13.3,1505.2,325.9,-0.8,1.8,2470.518,13.3,0.041,106.7
2021-01-03T07:52:03,42.805,6.029,0.047,-0.051,0.0,105.0,105.0,102.0,13.4,1505.3,324.6,-0.8,1.8,2470.52,13.31,0.069,137.3
2021-01-03T07:55:03,42.805,6.029,0.031,-0.047,0.03,105.0,107.0,101.0,13.3,1505.3,324.3,-0.7,1.8,2470.535,13.31,0.056,146.6
2021-01-03T07:58:03,42.805,6.029,0.016,-0.045,0.0,106.0,107.0,102.0,13.4,1505.3,327.2,-0.7,1.8,2470.484,13.32,0.047,160.4
2021-01-03T08:04:03,42.805,6.029,0.013,-0.044,-0.02,105.0,105.0,103.0,13.4,1505.2,327.5,-0.7,1.8,2470.556,13.3,0.045,163.5
2021-01-03T08:07:03,42.805,6.029,0.024,-0.038,0.005,105.0,107.0,102.0,13.4,1505.3,323.8,-0.7,1.8,2470.538,13.31,0.044,147.7
2021-01-03T08:10:03,42.805,6.029,0.028,-0.042,-0.016,106.0,106.0,103.0,13.4,1505.3,327.5,-0.7,1.8,2470.554,13.31,0.05,146.3
2021-01-03T08:13:03,42.805,6.029,0.007,-0.042,-0.017,105.0,106.0,102.0,13.3,1505.3,325.9,-0.7,1.8,2470.591,13.32,0.042,170.5
2021-01-03T08:16:03,42.805,6.029,0.012,-0.061,0.012,104.0,107.0,101.0,13.3,1505.3,328.2,-0.7,1.8,2470.568,13.32,0.062,168.9
2021-01-03T08:19:03,42.805,6.029,0.036,-0.036,0.026,105.0,105.0,102.0,13.4,1505.3,327.6,-0.7,1.8,2470.511,13.32,0.05,135.0
2021-01-03T08:22:03,42.805,6.029,0.032,-0.043,0.016,104.0,105.0,102.0,13.3,1505.3,327.9,-0.7,1.9,2470.561,13.32,0.053,143.3
2021-01-03T08:25:03,42.805,6.029,0.024,-0.044,0.005,106.0,105.0,102.0,13.4,1505.3,328.0,-0.7,1.8,2470.548,13.32,0.05,151.4
2021-01-03T08:28:03,42.805,6.029,0.042,-0.037,-0.002,106.0,105.0,102.0,13.3,1505.3,324.6,-0.7,1.9,2470.529,13.32,0.055,131.4
2021-01-03T08:31:03,42.805,6.029,0.039,-0.012,0.009,105.0,106.0,102.0,13.3,1505.3,326.9,-0.7,1.9,2470.564,13.32,0.04,107.1
2021-01-03T08:34:03,42.805,6.029,0.036,-0.052,-0.022,106.0,107.0,103.0,13.4,1505.3,327.0,-0.7,1.8,2470.561,13.32,0.063,145.3
2021-01-03T08:37:03,42.805,6.029,0.02,-0.051,-0.024,107.0,106.0,102.0,13.3,1505.3,323.6,-0.7,1.8,2470.536,13.32,0.054,158.6
2021-01-03T08:40:03,42.805,6.029,0.021,-0.045,0.007,106.0,108.0,102.0,13.4,1505.3,323.8,-0.7,1.9,2470.526,13.32,0.049,155.0
2021-01-03T08:43:03,42.805,6.029,0.024,-0.039,-0.017,104.0,107.0,100.0,13.3,1505.3,323.1,-0.7,1.8,2470.571,13.32,0.045,148.4
2021-01-03T08:46:03,42.805,6.029,0.031,-0.03,0.014,104.0,104.0,102.0,13.4,1505.3,323.1,-0.7,1.8,2470.531,13.32,0.043,134.1
2021-01-03T08:49:03,42.805,6.029,0.041,-0.055,0.007,106.0,106.0,102.0,13.4,1505.3,327.3,-0.7,1.8,2470.554,13.32,0.068,143.3
2021-01-03T08:52:03,42.805,6.029,0.033,-0.04,-0.009,104.0,107.0,102.0,13.4,1505.3,327.0,-0.7,1.8,2470.54,13.32,0.051,140.5
2021-01-03T08:55:03,42.805,6.029,0.036,-0.027,-0.013,105.0,107.0,102.0,13.3,1505.3,326.7,-0.7,1.8,2470.567,13.32,0.045,126.9
2021-01-03T08:58:03,42.805,6.029,0.02,-0.053,-0.014,104.0,106.0,102.0,13.3,1505.3,325.4,-0.7,1.8,2470.577,13.32,0.056,159.3
2021-01-03T09:04:03,42.805,6.029,0.029,-0.05,-0.007,106.0,105.0,101.0,13.3,1505.2,328.0,-0.7,1.8,2470.592,13.3,0.057,149.9
2021-01-03T09:07:03,42.805,6.029,0.004,-0.042,0.009,105.0,105.0,101.0,13.4,1505.3,324.5,-0.7,1.8,2470.572,13.31,0.042,174.6
2021-01-03T09:10:03,42.805,6.029,0.04,-0.053,-0.001,103.0,107.0,101.0,13.4,1505.3,326.9,-0.7,1.8,2470.587,13.31,0.066,143.0
2021-01-03T09:13:03,42.805,6.029,0.029,-0.042,0.034,105.0,106.0,101.0,13.3,1505.3,326.0,-0.7,1.8,2470.569,13.32,0.051,145.4
2021-01-03T09:16:03,42.805,6.029,0.023,-0.043,0.013,105.0,107.0,103.0,13.3,1505.3,323.9,-0.7,1.9,2470.577,13.32,0.048,151.9
2021-01-03T09:19:03,42.805,6.029,0.0,-0.046,-0.017,105.0,106.0,102.0,13.3,1505.3,324.8,-0.7,1.8,2470.559,13.32,0.046,180.0
2021-01-03T09:22:03,42.805,6.029,0.021,-0.044,-0.013,105.0,106.0,103.0,13.4,1505.3,327.8,-0.7,1.8,2470.557,13.32,0.048,154.5
2021-01-03T09:25:03,42.805,6.029,0.0,-0.038,-0.004,105.0,108.0,103.0,13.3,1505.3,323.3,-0.7,1.8,2470.578,13.32,0.038,180.0
2021-01-03T09:28:03,42.805,6.029,0.04,-0.03,0.041,106.0,105.0,103.0,13.4,1505.3,326.3,-0.7,1.9,2470.554,13.32,0.05,126.9
2021-01-03T09:31:03,42.805,6.029,-0.003,-0.054,0.006,105.0,106.0,102.0,13.3,1505.3,325.2,-0.7,1.8,2470.562,13.32,0.054,183.2
2021-01-03T09:34:03,42.805,6.029,0.048,-0.062,0.018,106.0,105.0,102.0,13.4,1505.3,325.9,-0.7,1.9,2470.56,13.32,0.078,142.3
2021-01-03T09:37:03,42.805,6.029,0.026,-0.027,-0.003,106.0,106.0,102.0,13.3,1505.3,322.8,-0.8,1.8,2470.567,13.32,0.037,136.1
2021-01-03T09:40:03,42.805,6.029,0.017,-0.05,0.006,105.0,106.0,103.0,13.3,1505.3,326.2,-0.7,1.8,2470.549,13.32,0.052,161.2
2021-01-03T09:43:03,42.805,6.029,0.017,-0.032,-0.007,106.0,107.0,102.0,13.4,1505.3,325.3,-0.7,1.8,2470.537,13.32,0.036,152.0
2021-01-03T09:46:03,42.805,6.029,0.027,-0.03,-0.003,105.0,106.0,102.0,13.4,1505.3,325.0,-0.7,1.8,2470.576,13.32,0.04,138.0
2021-01-03T09:49:03,42.805,6.029,0.037,-0.024,0.031,105.0,106.0,100.0,13.3,1505.3,324.4,-0.7,1.8,2470.588,13.32,0.044,123.0
2021-01-03T09:52:03,42.805,6.029,0.022,-0.041,0.013,106.0,107.0,101.0,13.4,1505.3,325.6,-0.7,1.8,2470.555,13.32,0.046,151.8
2021-01-03T09:55:03,42.805,6.029,0.005,-0.029,-0.006,105.0,105.0,102.0,13.4,1505.3,326.8,-0.7,1.8,2470.519,13.32,0.029,170.2
2021-01-03T09:58:03,42.805,6.029,-0.002,-0.046,-0.032,105.0,106.0,103.0,13.4,1505.3,327.2,-0.7,1.8,2470.551,13.32,0.046,182.5
2021-01-03T10:04:03,42.805,6.029,0.004,-0.055,0.004,105.0,104.0,102.0,13.4,1505.2,327.4,-0.8,1.8,2470.578,13.3,0.055,175.8